Regional Weather Roundup
Issued by NWS

Home | Current Version | Previous Version | Graphics & Text | Print | Product List | Glossary On
Versions: 1 2 3 4 5 6 7 8 9 10 11 12 13 14 15 16 17 18 19 20 21 22 23 24 25 26 27 28 29 30 31 32 33 34 35 36 37 38 39 40 41 42 43 44 45 46 47 48 49 50
000
ASUS43 KLOT 291400
RWRIL

ILLINOIS REGIONAL WEATHER ROUNDUP
NATIONAL WEATHER SERVICE CHICAGO/ROMEOVILLE IL
900 AM CDT SAT AUG 29 2015

NOTE: "FAIR" INDICATES FEW OR NO CLOUDS BELOW 12,000 FEET WITH NO
SIGNIFICANT WEATHER AND/OR OBSTRUCTIONS TO VISIBILITY.

* THESE STATIONS ARE NOT UNDER NWS QUALITY CONTROL. THEY ALSO MAY NOT
  REPORT WEATHER SUCH AS PRECIPITATION OR FOG.

ILZ001-002-007-009-015-016-024-291500-
NORTHWEST ILLINOIS

CITY           SKY/WX    TMP DP  RH WIND       PRES   REMARKS
MOLINE         CLOUDY    69  63  81 CALM      29.98R
STERLING*      CLOUDY    66  63  88 E3        29.99S
$$

ILZ003-004-008-010-011-017-018-291500-
NORTH CENTRAL ILLINOIS

CITY           SKY/WX    TMP DP  RH WIND       PRES   REMARKS
ROCKFORD       TSTM      64  61  90 SE8       30.03S FOG
FREEPORT*      CLOUDY    62  61  97 SE5       30.02F THUNDER FOG
$$

ILZ005-006-012>014-019>023-291500-
NORTHEAST ILLINOIS

CITY           SKY/WX    TMP DP  RH WIND       PRES   REMARKS
CHICAGO-OHARE  RAIN      64  63  96 NE9       30.05S FOG
CHICAGO-MIDWAY CLOUDY    67  62  84 E5        30.05S
AURORA         CLOUDY    65  63  93 NE8       30.04F FOG
LANSING*       LGT RAIN  64  62  93 E3        30.06S
WAUKEGAN       LGT RAIN  61  59  93 SE8       30.05F
DUPAGE AIRPORT LGT RAIN  64  61  90 E7        30.04S FOG
WHEELING       LGT RAIN  63  61  93 SE9       30.06F FOG
NORTHERLY ISL    N/A     64  61  90 E5          N/A
$$

LMZ740>746-291500-
SOUTHERN LAKE MICHIGAN

STATION/POSITION SKY/WX   TEMP    WIND        PRES    VSBY  WAVE
                          AIR SEA DIR/SP/G                  HT/PER
                          (F)     (DEG/KT/KT) (MB)    (MI)  (FT/S)
SOUTHERN BUOY              66 68  170/  4/  6 1018.1F         1/ 3
WILMETTE HARBOR            60 56  260/  4/  4   N/A           1/ 3
HARRISON CRIB              65     150/  9/ 11   N/A
BURNHAM HARBOR             62      CALM  /  6   N/A
BURNS HARBOR               66     140/  9/ 13 1018.6
MICHIGAN CITY              65     110/  8/  9   N/A
MICHIGAN CITY 6N           66 70  170/ 10/ 12   N/A           1
ST. JOSEPH                 66 70  140/  6/  8   N/A           1
$$

ILZ025>027-034>036-040-047-049-050-058-095>099-291500-
WEST-CENTRAL ILLINOIS

CITY           SKY/WX    TMP DP  RH WIND       PRES   REMARKS
QUINCY         MOSUNNY   73  64  73 S7        29.99S
$$

ILZ028>032-037-038-041>044-048-051>054-059>061-291500-
CENTRAL ILLINOIS

CITY           SKY/WX    TMP DP  RH WIND       PRES   REMARKS
DECATUR        CLOUDY    71  64  78 S6        30.04F
PEORIA         MOSUNNY   71  64  78 S9        30.00S
SPRINGFIELD    CLOUDY    71  66  84 S9        30.02F
TAYLORVILLE    NOT AVBL
$$

ILZ033-039-045-046-055>057-062-063-291500-
EAST-CENTRAL ILLINOIS

CITY           SKY/WX    TMP DP  RH WIND       PRES   REMARKS
CHAMPAIGN      CLOUDY    70  64  81 S7        30.05F
MATTOON        CLOUDY    71  64  78 S7        30.05S
$$

ILZ079-100>102-291500-
SOUTHWEST ILLINOIS

CITY           SKY/WX    TMP DP  RH WIND       PRES   REMARKS
ALTON          CLOUDY    72  66  83 S9        30.03S
CAHOKIA*       CLOUDY    73  65  75 VRB5      30.03R
$$

ILZ064>066-069>071-074>076-080>082-084>086-088>090-092>094-291500-
SOUTH-CENTRAL ILLINOIS

CITY           SKY/WX    TMP DP  RH WIND       PRES   REMARKS
CARBONDALE     CLOUDY    72  67  84 S6        30.06S
MARION         CLOUDY    73  68  83 S8        30.07S
MT. VERNON     PTSUNNY   73  64  73 S6        30.07S
$$

ILZ067-068-072-073-078-083-087-091-291500-
SOUTHEAST ILLINOIS

CITY           SKY/WX    TMP DP  RH WIND       PRES   REMARKS
LAWRENCEVILLE  PTSUNNY   73  66  78 S7        30.08F
FLORA*         PTSUNNY   73  66  79 S6        30.07S
ROBINSON*      PTSUNNY   73  66  80 S6        30.09S
$$

ABBREVIATIONS USED IN REMARKS
   TC - TEMPERATURE IN CELSIUS
  WCI - WIND CHILL INDEX
   HX - HEAT INDEX
  VSB - VISIBILITY
$$




USA.gov is the U.S. government's official web portal to all federal, state and local government web resources and services.